FENGYUN 1C DEB, 46443

Orbit data source: Space-Track

FENGYUN 1C DEB, 46443 is space debris in SSO originally from a launch on Mon, 10 May 1999 UTC launched from the Taiyaun Space Center, China (TSC). Fengyun 1C debris stems from the Chinese weather satellite Fengyun-1C, which was intentionally destroyed by a Chinese anti-satellite missile in 2007. This event dramatically increased the amount of space debris, with thousands of trackable fragments posing hazards to satellites and human spaceflight. The Fengyun 1C debris cloud has become a focal point in discussions about space sustainability and the need for international regulations to prevent the creation of new debris.

Loading next visibility...
Identifier
46443, 1999-025EYY
Orbit
SSO
Country
Flag of CNCN / PRC
Related business
Manufacturer
Unknown
Mission
Spacecraft
Bus & Motor
Unknown
Mass
Unknown
Launch date (UTC)
1999-05-10 (27 years ago)
Launch vehicle
Unknown
Launch site
Taiyaun Space Center, China (TSC)
Object type
Payload
Rocket body
Debris
Shape & HBR
Unknown shape, 0.1 m
Radar Cross Section
Small (<0.1 m²)

Expand to show TLE details & history
Last TLE update: 2 days ago

TLE from 2 days ago
0 FENGYUN 1C DEB
1 46443U 99025EYY 26171.15838645  .00002786  00000-0  14751-2 0  9996
2 46443  99.2025 247.9241 0098778 184.4408 206.2826 14.12078203622685
Epoch: 2026-06-20T03:48Z
TLE epoch observation values (Epoch: 2026-06-20T03:48:04.589Z)
Latitude
29.84942°
Longitude
-82.77856°
Altitude
920.157 km
Speed
7.362 km/s
True Right ascension
16h 10m 28s
True Declination
29° 42' 16"
Sunlit
Object was in full shadow at epoch
Visualization orbit readout
Latitude
Unknown
Longitude
Unknown
Altitude
Unknown
Speed
Unknown
Apparent Right ascension
Unknown
Apparent Declination
Unknown
Sunlit
N/A
Visualization observer readout
Local Sidereal Time
21:40:28
Azimuth
Unknown
Elevation
Unknown
Doppler factor
Unknown
Orbital elements
Apogee altitude
920.855 km
Perigee altitude
778.069 km
Semi-major axis
7,227.599 km
Eccentricity
0.00988
Inclination
99.2025°
RAAN
247.9241°
Arg. of periapsis
184.4408°
True anomaly
205.78689°
Mean anomaly
206.2826°
Eccentric anomaly
206.0342°
Mean motion
3.53226 °/min
Orbital period
101.92 mins
BSTAR
0.0014751
Loading maneuver chart data...
Computing Atmospheric mass density...
Loading historical data...
Loading historical data...
Loading historical data...
Loading historical data...
Loading historical data...
Loading historical data...
Loading historical data...

Documentation

Showing up to 5 results
|